Wind_Speed
33 33 33 33 33 33 32 32 31 31 32 32 32 32 31 31 30 30 29 28 27 27 26 26 26 25 24 24 23 22 22 21 21 21 20 20 19 19 19 19 19 18 18
36 36 36 36 36 35 35 34 34 33 33 34 33 33 33 32 32 32 32 31 30 29 29 28 28 28 27 27 26 25 25 24 24 23 23 23 22 22 22 22 21 21 20
39 38 38 38 38 37 37 37 36 36 36 35 35 35 35 34 34 34 34 34 33 32 31 31 30 30 30 30 29 28 28 27 26 26 25 25 25 24 24 24 23 23 23
41 41 41 40 39 39 39 39 39 39 38 38 37 37 37 37 37 37 37 36 36 35 34 33 33 32 32 32 32 31 31 30 30 29 28 27 27 27 26 26 25 25 25
42 42 43 42 42 41 41 41 41 41 40 40 40 40 40 39 39 39 39 39 38 38 37 36 35 35 34 34 34 34 33 33 32 32 31 30 30 29 29 28 28 28 27
44 44 44 45 45 44 44 44 44 44 43 43 43 42 42 42 42 42 41 41 41 40 39 39 38 38 37 37 36 36 35 35 35 34 34 33 32 32 31 31 30 30 29
46 46 46 47 47 47 46 46 46 46 46 45 45 45 45 45 44 44 44 43 43 43 42 41 41 40 40 39 39 38 38 37 37 37 37 36 35 35 34 34 33 32 32
47 48 48 49 49 48 48 48 48 48 48 48 48 48 47 47 47 46 46 46 45 45 45 44 44 43 43 42 42 42 41 40 40 39 39 39 39 38 37 37 37 36 35
49 49 50 50 50 50 49 50 50 50 50 50 50 50 49 48 48 48 48 48 48 48 47 47 46 46 45 45 45 44 44 43 43 42 42 41 41 41 40 40 40 39 38
50 50 51 51 51 51 51 51 52 52 52 51 51 51 51 51 51 50 50 50 50 50 50 50 49 49 49 48 47 47 46 46 46 45 44 44 44 43 43 43 42 42 41
51 51 52 52 52 52 52 53 53 52 52 52 52 52 53 53 53 53 53 53 53 53 53 53 52 52 52 51 50 50 50 49 49 48 47 47 47 46 46 46 45 44 44
51 51 51 51 52 52 53 54 54 54 54 54 54 53 53 54 54 55 54 54 55 54 55 55 55 54 54 54 53 53 53 52 52 51 50 50 50 49 48 48 48 48 47
51 51 52 51 51 51 52 53 54 55 55 55 55 55 54 55 55 56 56 55 56 55 56 56 56 56 56 57 56 55 55 55 54 54 53 53 53 52 52 51 51 50 50
51 52 53 52 51 51 52 52 53 54 55 55 55 55 55 54 55 56 56 56 57 57 56 56 57 58 58 59 58 58 58 58 58 57 57 56 56 55 55 54 54 53 53
50 52 53 53 53 52 52 52 52 53 54 54 54 54 55 55 55 56 57 57 58 58 57 57 58 59 59 60 60 60 60 60 60 60 59 59 59 58 58 57 57 56 55
50 51 52 53 54 53 52 53 53 54 54 54 55 55 55 55 56 56 57 57 58 58 59 58 59 60 60 60 60 61 61 61 62 62 61 61 61 61 60 60 59 59 58
49 49 50 52 53 53 53 53 53 54 55 55 56 56 56 56 57 57 58 59 59 60 60 59 59 61 61 62 62 63 62 62 63 63 63 63 63 63 62 62 62 61 61
47 49 49 51 52 52 53 53 54 54 54 54 55 56 57 57 57 58 58 59 60 60 61 61 61 62 62 63 63 64 63 62 63 63 63 63 63 63 63 62 62 62 62
47 48 49 50 51 52 53 53 54 55 55 55 56 56 57 58 59 59 59 60 60 61 62 62 61 62 64 64 64 64 63 63 62 62 62 63 63 62 62 62 62 62 62
47 48 49 50 51 52 53 54 54 55 54 55 55 57 58 58 59 59 59 59 60 60 61 62 62 62 62 63 64 64 63 63 62 62 62 63 63 63 63 62 62 62 61
46 48 49 49 50 51 52 54 55 55 55 55 56 57 58 58 59 59 59 59 60 61 62 62 62 63 63 63 64 63 63 63 62 62 62 63 63 63 63 63 63 62 62
46 48 48 48 49 50 52 53 54 55 55 55 55 56 57 58 59 59 60 60 61 61 62 62 62 62 63 62 63 63 64 64 63 63 63 63 63 63 63 63 63 63 63
48 48 49 50 50 51 52 53 54 55 55 56 56 57 57 58 58 58 59 59 61 61 63 63 62 61 61 61 62 62 63 63 62 63 64 63 62 62 62 63 62 62 62
47 48 49 51 51 51 52 53 54 56 55 56 56 57 57 57 57 58 59 60 61 61 62 63 63 61 60 60 60 61 61 62 61 62 62 62 62 62 61 61 61 61 61
47 48 49 51 51 52 52 53 54 55 55 55 56 56 56 56 57 58 59 60 60 60 61 62 62 61 60 60 61 62 62 62 61 61 62 62 61 62 61 60 60 60 60
47 49 49 49 50 50 50 51 52 53 53 53 53 54 54 56 57 58 58 58 58 59 59 60 61 61 60 60 60 61 61 62 62 62 62 62 61 61 61 60 60 60 60
Wind_Direction
255 257 258 257 258 258 258 257 256 254 253 252 252 251 250 250 250 250 250 250 250 250 251 251 251 251 252 252 252 253 253 254 254 254 254 255 255 256 257 258 259 259 260
256 257 259 259 258 258 258 256 256 254 253 252 252 252 250 250 250 250 250 251 251 251 251 252 252 252 252 252 253 253 254 254 254 255 256 256 256 256 257 259 260 259 259
257 257 259 260 259 257 257 256 255 255 254 253 252 252 251 251 251 251 251 251 251 251 251 252 252 252 252 252 253 253 253 254 255 256 256 256 256 256 256 258 258 259 260
257 257 258 259 260 259 257 257 256 255 254 254 253 253 253 252 252 252 251 251 251 251 251 252 252 252 252 252 253 253 253 254 254 255 256 256 256 256 257 257 258 259 260
257 257 258 259 259 258 258 257 257 256 255 255 254 254 253 252 252 252 251 251 252 252 252 252 252 252 252 253 253 253 254 254 254 254 255 256 256 256 256 257 258 260 260
256 256 257 258 258 257 257 257 257 257 257 256 255 255 255 253 252 252 251 251 252 252 252 252 253 252 252 253 253 253 254 254 254 255 255 255 256 256 256 257 258 259 260
257 257 257 257 259 259 258 258 257 257 257 257 256 255 255 254 253 252 251 251 252 252 252 252 253 253 253 253 254 254 254 254 255 255 255 255 256 256 256 257 258 259 260
258 259 259 258 259 259 258 258 258 258 257 257 257 256 255 254 254 253 252 251 251 252 253 252 252 253 253 253 254 255 255 255 255 256 256 255 255 256 257 257 258 259 260
259 259 260 260 259 258 258 258 258 258 258 258 257 257 256 255 255 253 252 252 251 252 252 253 253 253 253 254 254 255 255 255 255 256 256 256 256 256 256 257 258 259 259
259 259 259 260 259 258 258 257 257 258 258 258 258 257 256 256 255 253 252 252 252 252 252 253 254 254 254 254 255 255 255 255 256 256 256 256 256 257 257 257 258 259 259
262 261 261 260 259 259 258 257 257 258 258 258 258 258 257 256 255 254 253 252 252 252 253 253 254 255 255 255 255 256 256 255 256 256 256 257 257 257 257 258 258 258 259
262 262 261 261 260 259 258 257 258 258 258 258 258 258 257 257 256 255 254 253 253 253 254 255 255 255 255 256 256 256 256 256 256 257 257 257 257 257 258 258 258 258 258
262 261 261 261 262 261 260 259 259 259 259 259 258 258 257 257 257 256 255 254 253 253 254 255 255 255 256 256 256 256 257 257 257 257 257 257 257 257 258 258 258 258 258
263 262 262 262 263 262 261 260 260 260 260 259 258 258 258 258 258 257 256 255 254 253 254 255 256 256 256 257 257 257 257 257 258 258 258 258 258 258 258 258 258 258 258
263 263 262 262 262 263 262 261 260 260 260 259 258 258 258 258 259 259 257 257 256 255 254 254 256 257 258 258 258 258 257 258 258 258 258 258 258 258 258 258 258 258 258
264 264 263 262 262 263 262 261 260 260 260 259 258 258 259 259 259 260 259 258 257 256 255 254 256 257 258 258 258 258 258 258 258 259 259 259 258 258 258 259 259 258 258
265 265 264 263 262 263 262 261 261 261 261 260 259 259 259 259 260 260 260 259 258 257 257 256 256 257 257 258 258 258 258 258 259 259 259 259 259 259 259 259 259 259 258
266 265 264 263 262 262 262 261 261 262 261 261 260 260 259 259 261 261 260 260 259 258 257 257 257 257 257 258 258 259 259 259 259 259 259 258 258 258 258 258 259 259 259
267 266 265 263 262 262 262 262 262 263 263 262 261 260 260 260 261 261 260 261 261 260 258 258 257 257 258 258 258 258 258 258 259 258 258 257 257 257 258 258 259 259 259
267 267 265 264 263 262 262 263 262 263 263 263 262 261 261 261 261 261 261 261 261 260 259 259 258 258 258 258 258 258 258 258 258 258 257 257 257 257 257 258 259 259 259
266 267 266 264 263 264 264 263 263 263 263 263 262 262 262 261 261 261 261 261 261 260 260 260 259 258 258 258 258 258 257 257 258 258 257 257 257 257 257 258 259 259 259
268 268 267 266 265 266 266 265 265 264 263 263 262 263 263 263 261 261 261 261 262 261 261 261 260 260 260 259 259 258 257 257 257 257 258 257 257 258 259 259 259 259 259
269 269 268 267 267 268 268 266 266 265 264 263 263 263 263 263 262 262 261 262 262 262 261 260 259 260 260 259 259 259 258 258 257 257 257 257 257 257 258 258 258 258 258
270 270 269 269 268 268 268 267 266 266 265 264 263 263 263 263 262 262 262 262 262 262 262 260 260 260 259 259 258 258 258 258 258 257 257 258 257 257 257 257 257 258 258
271 272 272 271 270 268 269 268 268 267 266 265 264 264 263 262 262 262 263 263 263 263 262 262 260 260 259 258 259 258 257 257 257 257 257 258 257 257 257 257 258 258 258
273 274 274 273 271 270 269 269 268 267 266 265 265 265 265 264 264 264 264 264 263 263 263 262 261 260 260 259 259 259 259 258 258 258 258 258 258 258 258 257 258 258 258
Height
5784 5785 5786 5787 5787 5788 5789 5789 5790 5791 5792 5793 5794 5795 5796 5798 5799 5801 5802 5803 5804 5805 5806 5808 5809 5810 5811 5811 5812 5813 5814 5814 5815 5816 5816 5817 5818 5818 5819 5819 5820 5820 5821
5776 5777 5778 5778 5779 5780 5781 5782 5782 5783 5784 5785 5786 5787 5789 5790 5791 5793 5795 5796 5798 5799 5800 5801 5802 5804 5805 5806 5807 5808 5808 5809 5810 5810 5811 5812 5813 5814 5814 5815 5815 5816 5816
5767 5768 5769 5769 5770 5771 5772 5773 5774 5775 5776 5777 5778 5779 5781 5782 5783 5785 5786 5788 5790 5791 5793 5794 5795 5797 5798 5799 5800 5801 5802 5803 5804 5805 5806 5807 5807 5808 5809 5809 5810 5811 5811
5756 5758 5759 5760 5760 5761 5763 5764 5765 5766 5767 5768 5769 5770 5772 5773 5775 5776 5778 5780 5782 5783 5785 5786 5788 5789 5791 5792 5793 5794 5796 5797 5798 5799 5800 5801 5801 5802 5803 5804 5804 5805 5806
5746 5747 5748 5749 5750 5751 5752 5754 5755 5756 5757 5758 5759 5761 5762 5763 5765 5767 5769 5770 5772 5774 5776 5778 5779 5781 5782 5784 5785 5787 5788 5789 5791 5792 5793 5794 5795 5796 5796 5797 5798 5799 5799
5734 5736 5737 5738 5739 5740 5742 5743 5744 5745 5746 5747 5749 5750 5752 5753 5755 5756 5758 5760 5762 5764 5766 5768 5770 5772 5774 5775 5777 5778 5780 5781 5782 5784 5785 5786 5788 5789 5790 5790 5791 5792 5793
5722 5723 5725 5727 5728 5729 5730 5731 5732 5734 5735 5736 5737 5739 5741 5742 5743 5745 5747 5750 5752 5754 5756 5758 5760 5762 5764 5766 5768 5769 5771 5772 5774 5775 5777 5778 5779 5780 5782 5783 5784 5784 5785
5710 5711 5712 5714 5715 5716 5718 5719 5720 5721 5723 5724 5725 5727 5729 5731 5732 5734 5736 5738 5741 5743 5745 5747 5749 5751 5753 5755 5757 5759 5761 5763 5764 5766 5767 5769 5770 5772 5773 5774 5775 5776 5777
5696 5698 5699 5700 5701 5703 5705 5706 5707 5708 5710 5711 5712 5714 5715 5718 5720 5722 5723 5726 5728 5731 5733 5735 5738 5740 5742 5744 5746 5748 5750 5752 5754 5756 5757 5759 5760 5762 5763 5764 5766 5767 5768
5682 5684 5685 5686 5687 5689 5691 5692 5693 5695 5696 5697 5698 5700 5702 5704 5706 5709 5711 5713 5715 5718 5720 5722 5725 5727 5729 5732 5734 5736 5738 5740 5742 5744 5746 5748 5749 5751 5752 5754 5755 5757 5758
5668 5669 5670 5672 5673 5675 5676 5678 5679 5680 5682 5683 5684 5686 5687 5689 5691 5694 5697 5700 5702 5704 5707 5709 5711 5714 5716 5719 5721 5723 5726 5728 5730 5732 5734 5736 5737 5739 5741 5743 5744 5746 5747
5654 5655 5656 5657 5658 5660 5661 5663 5664 5665 5667 5668 5670 5671 5673 5675 5677 5679 5682 5685 5688 5690 5692 5695 5697 5700 5702 5704 5707 5709 5712 5714 5716 5719 5721 5723 5725 5727 5728 5730 5732 5734 5735
5640 5641 5642 5643 5644 5645 5646 5648 5649 5650 5652 5653 5655 5656 5658 5660 5662 5664 5667 5670 5673 5676 5678 5680 5682 5685 5687 5689 5692 5694 5697 5699 5702 5704 5707 5709 5711 5713 5715 5717 5719 5720 5722
5627 5627 5627 5629 5629 5631 5632 5633 5634 5635 5636 5638 5639 5641 5643 5645 5647 5649 5651 5654 5657 5661 5663 5665 5667 5669 5671 5674 5676 5678 5681 5684 5686 5689 5691 5694 5696 5698 5700 5702 5704 5706 5708
5613 5613 5613 5614 5615 5616 5617 5618 5620 5621 5622 5623 5625 5626 5628 5630 5632 5634 5636 5638 5641 5644 5648 5650 5652 5653 5655 5658 5660 5662 5665 5667 5669 5672 5675 5677 5679 5682 5684 5686 5689 5691 5693
5599 5599 5599 5600 5601 5602 5602 5604 5605 5606 5607 5609 5611 5612 5614 5615 5617 5618 5620 5622 5624 5627 5631 5635 5635 5637 5638 5641 5643 5645 5647 5650 5652 5655 5657 5660 5662 5665 5667 5670 5672 5674 5677
5586 5586 5585 5586 5586 5587 5588 5589 5591 5592 5593 5594 5596 5597 5599 5600 5601 5603 5605 5606 5608 5610 5613 5618 5619 5620 5621 5624 5626 5627 5630 5632 5635 5637 5639 5642 5644 5647 5650 5652 5655 5657 5660
5573 5572 5571 5571 5572 5573 5573 5575 5577 5577 5578 5579 5581 5582 5584 5585 5586 5587 5589 5590 5592 5593 5596 5599 5602 5603 5604 5606 5608 5610 5612 5614 5617 5619 5621 5623 5626 5629 5631 5634 5636 5639 5642
5560 5558 5558 5558 5558 5559 5560 5561 5562 5563 5564 5565 5566 5567 5568 5569 5571 5571 5573 5574 5575 5576 5578 5581 5584 5586 5587 5588 5590 5592 5594 5596 5598 5601 5603 5605 5608 5611 5614 5616 5619 5621 5624
5547 5546 5545 5545 5545 5545 5546 5547 5548 5549 5549 5550 5551 5552 5553 5554 5555 5555 5556 5557 5558 5559 5561 5563 5566 5568 5569 5570 5571 5574 5577 5579 5581 5583 5585 5588 5590 5593 5596 5599 5602 5604 5606
5534 5533 5532 5532 5531 5532 5532 5532 5533 5534 5535 5535 5536 5536 5537 5538 5538 5539 5540 5541 5541 5542 5544 5545 5547 5549 5552 5552 5554 5556 5559 5561 5563 5565 5568 5571 5573 5576 5578 5581 5584 5586 5589
5521 5520 5519 5518 5518 5518 5518 5518 5518 5519 5519 5520 5520 5521 5521 5522 5522 5523 5524 5524 5525 5525 5527 5527 5530 5532 5534 5535 5536 5538 5540 5543 5547 5550 5550 5553 5555 5558 5561 5564 5566 5569 5571
5508 5506 5505 5505 5504 5504 5503 5503 5503 5503 5504 5505 5505 5505 5505 5505 5505 5506 5507 5507 5507 5508 5509 5510 5512 5514 5516 5518 5519 5521 5523 5525 5528 5530 5531 5535 5537 5540 5543 5546 5548 5551 5553
5494 5493 5492 5491 5490 5489 5488 5488 5487 5487 5488 5489 5489 5489 5489 5489 5489 5489 5490 5490 5491 5491 5492 5493 5495 5498 5498 5499 5500 5502 5504 5507 5510 5512 5513 5516 5520 5522 5525 5528 5531 5533 5535
5481 5480 5478 5476 5475 5474 5473 5472 5471 5471 5472 5472 5472 5473 5473 5473 5474 5473 5473 5474 5474 5474 5474 5475 5477 5479 5481 5482 5482 5484 5486 5488 5492 5495 5496 5498 5502 5504 5508 5511 5513 5515 5517
5467 5465 5463 5461 5460 5459 5458 5457 5455 5455 5456 5457 5457 5457 5457 5457 5456 5455 5455 5455 5456 5457 5457 5458 5459 5461 5462 5464 5465 5466 5468 5470 5474 5477 5479 5481 5484 5485 5490 5494 5496 5497 5499